This is the latest recevied weather packets stored in our database for station/object W5DNT. If no packets are shown the sender has not sent any weather packets the latest 10 day(s).
| Time | Temp. | Humidity | Pressure | Rain* | Wind** | Luminosity | Snow |
|---|---|---|---|---|---|---|---|
| 1777193156 | 22.78° C | 84% | 1004.9 hPa | 0 mm | - | - | - |
| 1777192257 | 22.78° C | 84% | 1005 hPa | 0 mm | - | - | - |
| 1777191354 | 22.78° C | 84% | 1005 hPa | 0 mm | - | - | - |
| 1777190462 | 23.33° C | 83% | 1005 hPa | 0 mm | - | - | - |
| 1777189548 | 23.33° C | 83% | 1004.9 hPa | 0 mm | - | - | - |
| 1777188647 | 23.33° C | 82% | 1004.9 hPa | 0 mm | - | - | - |
| 1777187749 | 23.89° C | 82% | 1005 hPa | 0 mm | - | - | - |
| 1777186844 | 23.89° C | 81% | 1005 hPa | 0 mm | - | - | - |
| 1777185945 | 23.89° C | 82% | 1005 hPa | 0 mm | - | - | - |
| 1777185042 | 23.89° C | 80% | 1004.8 hPa | 0 mm | - | - | - |
| 1777184141 | 23.89° C | 80% | 1004.8 hPa | 0 mm | - | - | - |
| 1777183242 | 23.89° C | 78% | 1004.7 hPa | 0 mm | - | - | - |
| 1777182347 | 23.89° C | 79% | 1004.8 hPa | 0 mm | - | - | - |
| 1777181437 | 23.89° C | 78% | 1004.8 hPa | 0 mm | - | - | - |
| 1777180535 | 24.44° C | 77% | 1004.7 hPa | 0 mm | - | - | - |
| 1777179632 | 24.44° C | 78% | 1004.8 hPa | 0 mm | - | - | - |
| 1777178732 | 24.44° C | 76% | 1004.9 hPa | 0 mm | - | - | - |
| 1777177832 | 25° C | 76% | 1004.9 hPa | 0 mm | - | - | - |
| 1777176932 | 25° C | 76% | 1004.7 hPa | 0 mm | - | - | - |
| 1777176033 | 25° C | 76% | 1004.6 hPa | 0 mm | - | - | - |
| 1777175132 | 24.44° C | 77% | 1004.5 hPa | 0 mm | - | - | - |
| 1777174230 | 24.44° C | 76% | 1004.5 hPa | 0 mm | - | - | - |
| 1777173330 | 25° C | 76% | 1004.5 hPa | 0 mm | - | - | - |
| 1777172440 | 25° C | 74% | 1004.5 hPa | 0 mm | - | - | - |
| 1777171528 | 25.56° C | 74% | 1004.1 hPa | 0 mm | - | - | - |
* Rain latest hour (hover to see other rain measurements)
** Current wind speed in m/s (hover to see current wind gust speed)